• In Deutschland
  • Länderverzeichnis
  • Für 7 Tage
  • Wassertemperatur
  • Satellitenkarten
  • Wetterkarte
  • Widgets
  • user-avatar
    Anmelden

    Stündliche Wetter Sankt Pölten

    Heute, 17 August, Donnerstag

    Zeit Temperatur Niederschläge Wind Luftdruck Luftfeuchtigkeit
    00:00 +19°C° 0 mm 1 m/S 740 mmHg 90%
    01:00 +18°C° 0 mm 1 m/S 740 mmHg 91%
    02:00 +18°C° 0 mm 1 m/S 740 mmHg 91%
    03:00 +18°C° 0 mm 1 m/S 740 mmHg 92%
    04:00 +18°C° 0 mm 1 m/S 739 mmHg 92%
    05:00 +19°C° 0 mm 1 m/S 740 mmHg 88%
    06:00 +20°C° 0 mm 1 m/S 740 mmHg 85%
    07:00 +19°C° 0 mm 0 m/S 740 mmHg 81%
    08:00 +23°C° 0 mm 1 m/S 740 mmHg 72%
    09:00 +26°C° 0 mm 1 m/S 740 mmHg 64%
    10:00 +28°C° 0 mm 1 m/S 740 mmHg 55%
    11:00 +29°C° 0 mm 1 m/S 739 mmHg 51%
    12:00 +30°C° 0 mm 1 m/S 739 mmHg 47%
    13:00 +31°C° 0 mm 1 m/S 739 mmHg 43%
    14:00 +31°C° 0 mm 1 m/S 739 mmHg 43%
    15:00 +30°C° 0 mm 1 m/S 738 mmHg 43%
    16:00 +30°C° 0 mm 1 m/S 738 mmHg 44%
    17:00 +28°C° 0 mm 1 m/S 738 mmHg 52%
    18:00 +26°C° 0 mm 1 m/S 738 mmHg 60%
    19:00 +22°C° 0 mm 0 m/S 738 mmHg 67%
    20:00 +23°C° 0 mm 1 m/S 738 mmHg 69%
    21:00 +22°C° 0 mm 1 m/S 738 mmHg 71%
    22:00 +22°C° 0 mm 1 m/S 738 mmHg 72%
    23:00 +21°C° 0 mm 1 m/S 738 mmHg 74%

    Morgen, 18 August, Freitag

    Zeit Temperatur Niederschläge Wind Luftdruck Luftfeuchtigkeit
    00:00 +21°C° 0 mm 1 m/S 738 mmHg 75%
    01:00 +21°C° 0 mm 1 m/S 738 mmHg 77%
    02:00 +20°C° 0 mm 1 m/S 738 mmHg 78%
    03:00 +20°C° 0 mm 1 m/S 738 mmHg 79%
    04:00 +20°C° 0 mm 1 m/S 738 mmHg 80%
    05:00 +21°C° 0 mm 1 m/S 738 mmHg 77%
    06:00 +22°C° 0 mm 1 m/S 738 mmHg 74%
    07:00 +21°C° 0 mm 0 m/S 738 mmHg 71%
    08:00 +26°C° 0 mm 1 m/S 738 mmHg 64%
    09:00 +28°C° 0 mm 1 m/S 738 mmHg 56%
    10:00 +30°C° 0 mm 1 m/S 738 mmHg 48%
    11:00 +31°C° 0 mm 1 m/S 738 mmHg 45%
    12:00 +32°C° 0 mm 2 m/S 737 mmHg 42%
    13:00 +34°C° 0 mm 2 m/S 737 mmHg 39%
    14:00 +34°C° 0 mm 2 m/S 736 mmHg 39%
    15:00 +34°C° 0 mm 2 m/S 736 mmHg 39%
    16:00 +34°C° 0 mm 3 m/S 736 mmHg 40%
    17:00 +31°C° 0 mm 2 m/S 735 mmHg 47%
    18:00 +29°C° 0 mm 2 m/S 735 mmHg 55%
    19:00 +26°C° 0 mm 2 m/S 735 mmHg 62%
    20:00 +25°C° 0 mm 2 m/S 735 mmHg 64%
    21:00 +24°C° 0 mm 2 m/S 734 mmHg 65%
    22:00 +23°C° 0 mm 2 m/S 734 mmHg 66%
    23:00 +23°C° 0 mm 2 m/S 734 mmHg 67%

    übermorgen, 19 August, Samstag

    Zeit Temperatur Niederschläge Wind Luftdruck Luftfeuchtigkeit
    00:00 +21°C° 0 mm 2 m/S 734 mmHg 68%
    01:00 +21°C° 0 mm 2 m/S 734 mmHg 68%
    02:00 +21°C° 0 mm 3 m/S 734 mmHg 72%
    03:00 +20°C° 0 mm 4 m/S 735 mmHg 76%
    04:00 +20°C° 0 mm 5 m/S 735 mmHg 80%
    05:00 +20°C° 0 mm 5 m/S 736 mmHg 78%
    06:00 +20°C° 0 mm 5 m/S 736 mmHg 77%
    07:00 +20°C° 0 mm 4 m/S 737 mmHg 75%
    08:00 +20°C° 0,2 mm 4 m/S 737 mmHg 74%
    09:00 +21°C° 0,2 mm 4 m/S 737 mmHg 73%
    10:00 +21°C° 0,2 mm 4 m/S 738 mmHg 72%
    11:00 +20°C° 1,2 mm 4 m/S 738 mmHg 77%
    12:00 +19°C° 1,2 mm 4 m/S 738 mmHg 82%
    13:00 +18°C° 1,2 mm 4 m/S 738 mmHg 87%
    14:00 +18°C° 1,8 mm 3 m/S 738 mmHg 89%
    15:00 +18°C° 1,8 mm 3 m/S 739 mmHg 91%
    16:00 +17°C° 1,8 mm 3 m/S 739 mmHg 93%
    17:00 +17°C° 1,1 mm 2 m/S 739 mmHg 94%
    18:00 +17°C° 1,1 mm 2 m/S 740 mmHg 94%
    19:00 +16°C° 1,1 mm 2 m/S 740 mmHg 95%
    20:00 +16°C° 0,1 mm 2 m/S 740 mmHg 95%
    21:00 +16°C° 0,1 mm 2 m/S 740 mmHg 95%
    22:00 +15°C° 0,1 mm 2 m/S 740 mmHg 95%
    23:00 +15°C° 0 mm 2 m/S 741 mmHg 95%

    20 August, Sonntag

    Zeit Temperatur Niederschläge Wind Luftdruck Luftfeuchtigkeit
    00:00 +15°C° 0 mm 2 m/S 741 mmHg 95%
    01:00 +14°C° 0 mm 2 m/S 741 mmHg 95%
    02:00 +14°C° 0 mm 2 m/S 741 mmHg 94%
    03:00 +14°C° 0 mm 2 m/S 741 mmHg 93%
    04:00 +13°C° 0 mm 2 m/S 741 mmHg 93%
    05:00 +14°C° 0 mm 2 m/S 741 mmHg 90%
    06:00 +13°C° 0 mm 3 m/S 741 mmHg 87%
    07:00 +14°C° 0 mm 3 m/S 742 mmHg 85%
    08:00 +17°C° 0 mm 3 m/S 742 mmHg 75%
    09:00 +19°C° 0 mm 3 m/S 742 mmHg 65%
    10:00 +20°C° 0 mm 3 m/S 742 mmHg 55%
    11:00 +21°C° 0,1 mm 4 m/S 742 mmHg 53%
    12:00 +22°C° 0,1 mm 4 m/S 742 mmHg 51%
    13:00 +22°C° 0,1 mm 4 m/S 742 mmHg 48%
    14:00 +22°C° 0,1 mm 3 m/S 742 mmHg 50%
    15:00 +22°C° 0,1 mm 3 m/S 742 mmHg 51%
    16:00 +22°C° 0,1 mm 3 m/S 741 mmHg 52%
    17:00 +20°C° 0 mm 2 m/S 742 mmHg 59%
    18:00 +19°C° 0 mm 2 m/S 742 mmHg 67%
    19:00 +18°C° 0 mm 1 m/S 742 mmHg 74%
    20:00 +16°C° 0 mm 1 m/S 742 mmHg 76%
    21:00 +16°C° 0 mm 1 m/S 742 mmHg 78%
    22:00 +15°C° 0 mm 1 m/S 743 mmHg 80%
    23:00 +14°C° 0 mm 1 m/S 743 mmHg 81%

    21 August, Montag

    Zeit Temperatur Niederschläge Wind Luftdruck Luftfeuchtigkeit
    00:00 +14°C° 0 mm 1 m/S 743 mmHg 83%
    01:00 +14°C° 0 mm 1 m/S 743 mmHg 84%
    02:00 +13°C° 0 mm 1 m/S 742 mmHg 85%
    03:00 +13°C° 0 mm 1 m/S 742 mmHg 85%
    04:00 +13°C° 0 mm 1 m/S 742 mmHg 86%
    05:00 +14°C° 0 mm 1 m/S 742 mmHg 82%
    06:00 +15°C° 0 mm 1 m/S 742 mmHg 78%
    07:00 +16°C° 0 mm 1 m/S 742 mmHg 75%
    08:00 +20°C° 0 mm 1 m/S 742 mmHg 66%
    09:00 +21°C° 0 mm 0 m/S 742 mmHg 58%
    10:00 +23°C° 0 mm 0 m/S 742 mmHg 49%
    11:00 +26°C° 0 mm 1 m/S 741 mmHg 46%
    12:00 +27°C° 0 mm 1 m/S 741 mmHg 42%
    13:00 +28°C° 0 mm 1 m/S 740 mmHg 38%
    14:00 +28°C° 0 mm 1 m/S 740 mmHg 39%
    15:00 +27°C° 0 mm 1 m/S 739 mmHg 39%
    16:00 +27°C° 0 mm 1 m/S 739 mmHg 39%
    17:00 +25°C° 0 mm 1 m/S 739 mmHg 47%
    18:00 +23°C° 0 mm 1 m/S 738 mmHg 55%
    19:00 +20°C° 0 mm 1 m/S 738 mmHg 63%
    20:00 +20°C° 0 mm 1 m/S 738 mmHg 65%
    21:00 +19°C° 0 mm 1 m/S 738 mmHg 67%
    22:00 +18°C° 0 mm 1 m/S 738 mmHg 69%
    23:00 +18°C° 0 mm 1 m/S 737 mmHg 70%

    22 August, Dienstag

    Zeit Temperatur Niederschläge Wind Luftdruck Luftfeuchtigkeit
    00:00 +16°C° 0 mm 1 m/S 737 mmHg 71%
    01:00 +16°C° 0 mm 1 m/S 737 mmHg 72%
    02:00 +16°C° 0 mm 1 m/S 737 mmHg 72%
    03:00 +16°C° 0 mm 1 m/S 736 mmHg 71%
    04:00 +16°C° 0 mm 1 m/S 736 mmHg 71%
    05:00 +18°C° 0 mm 1 m/S 736 mmHg 68%
    06:00 +19°C° 0 mm 1 m/S 736 mmHg 66%
    07:00 +20°C° 0 mm 1 m/S 736 mmHg 63%
    08:00 +23°C° 0 mm 1 m/S 736 mmHg 56%
    09:00 +25°C° 0 mm 2 m/S 736 mmHg 50%
    10:00 +28°C° 0 mm 2 m/S 736 mmHg 43%
    11:00 +29°C° 0 mm 2 m/S 735 mmHg 42%
    12:00 +30°C° 0 mm 3 m/S 735 mmHg 41%
    13:00 +31°C° 0 mm 3 m/S 735 mmHg 39%
    14:00 +30°C° 0 mm 3 m/S 734 mmHg 41%
    15:00 +30°C° 0 mm 3 m/S 734 mmHg 43%
    16:00 +30°C° 0 mm 3 m/S 734 mmHg 45%
    17:00 +27°C° 0 mm 3 m/S 734 mmHg 54%
    18:00 +25°C° 0 mm 2 m/S 734 mmHg 64%
    19:00 +23°C° 0 mm 2 m/S 734 mmHg 73%
    20:00 +21°C° 1,1 mm 2 m/S 734 mmHg 78%
    21:00 +21°C° 1,1 mm 2 m/S 735 mmHg 84%
    22:00 +20°C° 1,1 mm 2 m/S 735 mmHg 89%
    23:00 +20°C° 1,3 mm 2 m/S 736 mmHg 90%
    Mehr zeigen